Weather History for KERV - December, 2012

Change the Weather History Date:

Monday, December 3, 2012

  Actual Average (KHDO) Record (KHDO)
Temperature  
Mean Temperature 63 °F -  
Max Temperature 71 °F 64 °F 87 °F (2013)
Min Temperature 55 °F 41 °F 30 °F (2006)
Degree Days  
Heating Degree Days 2    
Growing Degree Days 13 (Base 50)    
Moisture  
Dew Point 59 °F    
Average Humidity 89    
Maximum Humidity 94    
Minimum Humidity 69    
Precipitation  
Precipitation 0.00 in - - ()
Sea Level Pressure  
Sea Level Pressure 30.05 in    
Wind  
Wind Speed 8 mph (SSE)    
Max Wind Speed 15 mph    
Max Gust Speed 20 mph    
Visibility 8 miles    
Events      
Averages and records for this station are not official NWS values.
T = Trace of Precipitation, MM = Missing Value Source: NWS Daily Summary

Daily Weather History Graph

Daily Weather History Graph

Search for Another Location

Airport or City:

Trip Planner

Search our weather history database for the weather conditions in past years. The results will help you decide how hot, cold, wet, or windy it might be!

Date:

Astronomy

Dec. 03, 2012 Rise Set
Actual Time 7:16 AM CST 5:36 PM CST
Civil Twilight 6:50 AM CST 6:02 PM CST
Nautical Twilight 6:20 AM CST 6:31 PM CST
Astronomical Twilight 5:51 AM CST 7:00 PM CST
Moon 10:12 PM CST (12/3) 10:50 AM CST (12/3)
Length of Visible Light 11h 11m
Length of Day
10h 19m
Waning Gibbous, 78% of the Moon is Illuminated
Dec 3
Waning Gibbous
Dec 6
Last Quarter
Dec 13
New
Dec 19
First Quarter
Dec 28
Full

Hourly Weather History & Observations

Time (CST) Temp. Dew Point Humidity Pressure Visibility Wind Dir Wind Speed Gust Speed Precip Events Conditions
12:15 AM 62.6 °F 59.0 °F 88% 30.09 in 10.0 mi SSE 9.2 mph - N/A   Overcast
12:35 AM 62.6 °F 59.0 °F 88% 30.08 in 10.0 mi SSE 12.7 mph - N/A   Overcast
12:55 AM 62.6 °F 59.0 °F 88% 30.08 in 10.0 mi SSE 15.0 mph 18.4 mph N/A   Overcast
1:15 AM 62.6 °F 59.0 °F 88% 30.08 in 10.0 mi SSE 10.4 mph - N/A   Overcast
1:35 AM 62.6 °F 59.0 °F 88% 30.07 in 10.0 mi SSE 10.4 mph - N/A   Overcast
1:55 AM 62.6 °F 59.0 °F 88% 30.07 in 10.0 mi SSE 11.5 mph - N/A   Overcast
2:15 AM 62.6 °F 59.0 °F 88% 30.07 in 10.0 mi SSE 11.5 mph - N/A   Overcast
2:35 AM 62.6 °F 60.8 °F 94% 30.06 in 10.0 mi SSE 9.2 mph - N/A   Overcast
2:55 AM 62.6 °F 60.8 °F 94% 30.06 in 10.0 mi South 10.4 mph 16.1 mph N/A   Overcast
3:15 AM 62.6 °F 60.8 °F 94% 30.06 in 10.0 mi South 13.8 mph 18.4 mph N/A   Overcast
3:35 AM 62.6 °F 60.8 °F 94% 30.06 in 10.0 mi SSE 15.0 mph - N/A   Overcast
3:55 AM 62.6 °F 60.8 °F 94% 30.06 in 10.0 mi South 13.8 mph 19.6 mph N/A   Overcast
4:15 AM 62.6 °F 60.8 °F 94% 30.06 in 10.0 mi South 12.7 mph - N/A   Overcast
4:55 AM 62.6 °F 59.0 °F 88% 30.06 in 10.0 mi South 8.1 mph - N/A   Overcast
5:15 AM 62.6 °F 59.0 °F 88% 30.05 in 10.0 mi South 6.9 mph - N/A   Overcast
5:35 AM 62.6 °F 59.0 °F 88% 30.05 in 10.0 mi South 8.1 mph - N/A   Mostly Cloudy
5:55 AM 60.8 °F 59.0 °F 94% 30.05 in 10.0 mi SSE 8.1 mph - N/A   Overcast
6:15 AM 62.6 °F 59.0 °F 88% 30.05 in 10.0 mi Calm Calm - N/A   Overcast
6:35 AM 62.6 °F 59.0 °F 88% 30.05 in 10.0 mi Calm Calm - N/A   Overcast
6:55 AM 62.6 °F 59.0 °F 88% 30.05 in 10.0 mi SSE 8.1 mph - N/A   Overcast
7:15 AM 62.6 °F 59.0 °F 88% 30.06 in 10.0 mi SSE 8.1 mph - N/A   Overcast
7:35 AM 62.6 °F 59.0 °F 88% 30.06 in 10.0 mi SE 8.1 mph - N/A   Overcast
7:55 AM 62.6 °F 59.0 °F 88% 30.06 in 10.0 mi SSE 8.1 mph - N/A   Overcast
8:15 AM 62.6 °F 59.0 °F 88% 30.06 in 7.0 mi SSE 5.8 mph - N/A   Overcast
8:35 AM 62.6 °F 60.8 °F 94% 30.07 in 7.0 mi South 8.1 mph - N/A   Overcast
8:55 AM 62.6 °F 60.8 °F 94% 30.07 in 3.0 mi SSE 9.2 mph - N/A   Overcast
9:15 AM 62.6 °F 60.8 °F 94% 30.07 in 1.5 mi SE 9.2 mph - N/A   Overcast
9:35 AM 62.6 °F 60.8 °F 94% 30.08 in 2.0 mi SSE 10.4 mph - N/A   Light Drizzle
9:55 AM 62.6 °F 60.8 °F 94% 30.08 in 4.0 mi SSE 10.4 mph - N/A   Overcast
10:15 AM 62.6 °F 60.8 °F 94% 30.08 in 7.0 mi South 12.7 mph 18.4 mph N/A   Overcast
10:35 AM 62.6 °F 60.8 °F 94% 30.08 in 5.0 mi South 11.5 mph 16.1 mph N/A   Overcast
10:55 AM 62.6 °F 60.8 °F 94% 30.08 in 5.0 mi South 10.4 mph 16.1 mph N/A   Overcast
11:15 AM 62.6 °F 60.8 °F 94% 30.08 in 4.0 mi South 9.2 mph - N/A   Overcast
11:35 AM 62.6 °F 60.8 °F 94% 30.07 in 4.0 mi South 9.2 mph - N/A   Overcast
11:55 AM 62.6 °F 60.8 °F 94% 30.07 in 5.0 mi South 8.1 mph - N/A   Overcast
12:15 PM 62.6 °F 60.8 °F 94% 30.07 in 5.0 mi SSW 5.8 mph - N/A   Overcast
12:35 PM 62.6 °F 60.8 °F 94% 30.07 in 5.0 mi SSW 9.2 mph - N/A   Overcast
12:55 PM 64.4 °F 60.8 °F 88% 30.06 in 5.0 mi South 8.1 mph - N/A   Light Drizzle
1:15 PM 64.4 °F 62.6 °F 94% 30.05 in 10.0 mi SSE 8.1 mph - N/A   Overcast
1:35 PM 66.2 °F 62.6 °F 88% 30.04 in 10.0 mi South 9.2 mph - N/A   Overcast
1:55 PM 68.0 °F 62.6 °F 83% 30.04 in 10.0 mi South 8.1 mph - N/A   Overcast
2:15 PM 68.0 °F 62.6 °F 83% 30.03 in 10.0 mi South 8.1 mph - N/A   Overcast
2:35 PM 69.8 °F 62.6 °F 78% 30.02 in 10.0 mi South 8.1 mph - N/A   Overcast
2:55 PM 69.8 °F 62.6 °F 78% 30.02 in 10.0 mi SSW 8.1 mph - N/A   Overcast
3:15 PM 69.8 °F 62.6 °F 78% 30.01 in 10.0 mi South 9.2 mph - N/A   Mostly Cloudy
3:35 PM 71.6 °F 62.6 °F 73% 30.00 in 10.0 mi SSE 9.2 mph - N/A   Scattered Clouds
3:55 PM 71.6 °F 62.6 °F 73% 30.00 in 10.0 mi SSE 8.1 mph - N/A   Scattered Clouds
4:15 PM 71.6 °F 62.6 °F 73% 30.00 in 10.0 mi SSE 9.2 mph - N/A   Scattered Clouds
4:55 PM 71.6 °F 60.8 °F 69% 30.00 in 10.0 mi SSW 5.8 mph - N/A   Mostly Cloudy
5:15 PM 71.6 °F 62.6 °F 73% 30.00 in 10.0 mi SSE 5.8 mph - N/A   Mostly Cloudy
5:55 PM 64.4 °F 60.8 °F 88% 30.01 in 10.0 mi Calm Calm - N/A   Clear
6:15 PM 64.4 °F 59.0 °F 83% 30.02 in 10.0 mi Calm Calm - N/A   Mostly Cloudy
6:35 PM 64.4 °F 60.8 °F 88% 30.02 in 10.0 mi Calm Calm - N/A   Mostly Cloudy
6:55 PM 62.6 °F 59.0 °F 88% 30.02 in 10.0 mi Calm Calm - N/A   Scattered Clouds
7:15 PM 60.8 °F 57.2 °F 88% 30.02 in 10.0 mi Calm Calm - N/A   Clear
7:35 PM 60.8 °F 57.2 °F 88% 30.02 in 10.0 mi Calm Calm - N/A   Clear
7:55 PM 59.0 °F 55.4 °F 88% 30.02 in 10.0 mi Calm Calm - N/A   Clear
8:15 PM 59.0 °F 55.4 °F 88% 30.03 in 7.0 mi Calm Calm - N/A   Clear
8:35 PM 57.2 °F 55.4 °F 94% 30.02 in 7.0 mi Calm Calm - N/A   Clear
8:55 PM 55.4 °F 53.6 °F 94% 30.02 in 7.0 mi ESE 5.8 mph - N/A   Clear
9:15 PM 59.0 °F 55.4 °F 88% 30.02 in 7.0 mi Calm Calm - N/A   Clear
9:35 PM 55.4 °F 53.6 °F 94% 30.03 in 5.0 mi Calm Calm - N/A   Clear
9:55 PM 55.4 °F 53.6 °F 94% 30.04 in 5.0 mi Calm Calm - N/A   Clear
10:15 PM 55.4 °F 53.6 °F 94% 30.05 in 5.0 mi North 3.5 mph - N/A   Clear
10:35 PM 59.0 °F 55.4 °F 88% 30.05 in 5.0 mi Calm Calm - N/A   Clear
10:55 PM 55.4 °F 53.6 °F 94% 30.06 in 4.0 mi Calm Calm - N/A   Clear
11:15 PM 55.4 °F 53.6 °F 94% 30.06 in 0.8 mi Calm Calm - N/A   Mist
11:35 PM 55.4 °F 53.6 °F 94% 30.06 in 5.0 mi Calm Calm - N/A   Clear